{"data":{"norad_id":49212,"intl_designator":"2021-083AC","name":"ONEWEB-0346","alt_names":[],"object_type":"PAYLOAD","status":"ACTIVE","operator":null,"country":"UK","launch_date":"2021-09-14","launch_site_code":"TYMSC","launch_vehicle":null,"mission":null,"orbit_class":"UNKNOWN","rcs_meters":null,"size_class":null,"mass_kg":null,"dimensions":null,"purposes":["comms"],"wikipedia_slug":null,"has_3d_model":false,"image_url":null,"decayed_at":null,"tle_current":{"epoch":"2026-09-19T21:57:41.486400Z","epoch_age_seconds":77680,"freshness":"FRESH","line1":"1 49212U 21083AC  26262.91506350 -.00000029  00000+0 -10757-3 0  9994","line2":"2 49212  87.9164 316.6335 0002426 108.7473 251.3923 13.18687586242462","mean_motion":13.18687586,"eccentricity":0.0002426,"inclination_deg":87.9164,"raan_deg":316.6335,"arg_perigee_deg":108.7473,"mean_anomaly_deg":251.3923,"bstar":-0.00010757,"rev_number":24246,"period_min":109.19948100581,"perigee_km":1187.9010926375,"apogee_km":1191.5730251309,"semimajor_km":7567.8740588842,"source":"CELESTRAK","updated_at":"2026-09-20T09:00:44.666038Z"}}}